User: anonymous   Login
Location: �terpigny
(49.8910°N, 2.9249°E)
Time: 16:09:48
(UTC+00:00)
Language:

Cosmos 332 Rocket - Orbit

View from above orbital plane
View from above orbital plane
View from above satellite
View from above satellite

Ground track
Ground track

The orbit data is extracted from the following two-line orbital elements,

1 04370U 70028B   22021.73151124  .00000218  00000-0  51405-4 0  9992
2 04370  74.0396 125.0492 0016247 331.5772  28.4506 14.60168423256616
Epoch (UTC): 21 January 2022 17:33:22
Eccentricity: 0.0016247
inclination: 74.0396°
perigee height: 681 km
apogee height: 704 km
right ascension of ascending node: 125.0492°
argument of perigee: 331.5772°
revolutions per day: 14.60168423
mean anomaly at epoch: 28.4506°
orbit number at epoch: 25661

The dashed part of the orbit path shows where the satellite is in the earth's shadow,  

DLR